N192KQ RPMS-RPNS

Flight info

Callsign N192KQ
Flight time 0h 19m
Altitude 4500
Route RPMS LIMASAWA SAN RICARDO RPNS
Aircraft K100/L-V/N

Departure

Time 2026-04-18 06:40
Airport Surigao Airport (RPMS)

Arrival

Time 2026-04-18 07:00
Airport Siargao Airport (RPNS)
Time Latitude Longitude Altitude Speed Heading
2026-04-18 06:18 10.18691 124.78166 338 ft 0 kts 259°
2026-04-18 06:25 10.18691 124.78167 341 ft 0 kts 259°
2026-04-18 06:27 10.18690 124.78164 341 ft 1 kts 243°
2026-04-18 06:27 10.18679 124.78183 334 ft 10 kts 103°
2026-04-18 06:27 10.18645 124.78275 334 ft 16 kts 126°
2026-04-18 06:28 10.18538 124.78332 337 ft 19 kts 165°
2026-04-18 06:28 10.18401 124.78370 338 ft 21 kts 164°
2026-04-18 06:28 10.18290 124.78401 339 ft 9 kts 168°
2026-04-18 06:28 10.18246 124.78409 341 ft 3 kts 81°
2026-04-18 06:29 10.18261 124.78409 340 ft 0 kts 343°
2026-04-18 06:30 10.18513 124.78340 336 ft 70 kts 345°
2026-04-18 06:30 10.19062 124.78168 573 ft 88 kts 341°
2026-04-18 06:30 10.19677 124.78054 987 ft 91 kts 14°
2026-04-18 06:30 10.20098 124.78507 1365 ft 101 kts 79°
2026-04-18 06:31 10.19885 124.79253 1525 ft 125 kts 139°
2026-04-18 06:31 10.19048 124.79709 1661 ft 150 kts 167°
2026-04-18 06:31 10.18153 124.80203 2168 ft 146 kts 147°
2026-04-18 06:31 10.17266 124.80816 2252 ft 164 kts 146°
2026-04-18 06:32 10.16314 124.81477 2486 ft 165 kts 147°
2026-04-18 06:32 10.15359 124.82129 2714 ft 166 kts 145°
2026-04-18 06:32 10.14408 124.82795 2974 ft 166 kts 141°
2026-04-18 06:32 10.13538 124.83563 3264 ft 166 kts 135°
2026-04-18 06:33 10.12670 124.84351 3558 ft 168 kts 137°
2026-04-18 06:33 10.11804 124.85149 3729 ft 169 kts 137°
2026-04-18 06:33 10.10934 124.85947 3909 ft 168 kts 137°
2026-04-18 06:33 10.10061 124.86743 4067 ft 169 kts 137°
2026-04-18 06:34 10.09185 124.87540 4213 ft 170 kts 137°
2026-04-18 06:34 10.08305 124.88341 4359 ft 170 kts 137°
2026-04-18 06:34 10.07421 124.89149 4483 ft 173 kts 137°
2026-04-18 06:34 10.06509 124.89984 4484 ft 179 kts 137°
2026-04-18 06:35 10.05892 124.90548 4484 ft 181 kts 137°
2026-04-18 06:35 10.04637 124.91696 4480 ft 184 kts 137°
2026-04-18 06:35 10.03684 124.92568 4480 ft 184 kts 137°
2026-04-18 06:35 10.02728 124.93447 4480 ft 187 kts 137°
2026-04-18 06:36 10.01757 124.94341 4477 ft 190 kts 137°
2026-04-18 06:36 10.00772 124.95248 4489 ft 193 kts 137°
2026-04-18 06:36 9.99774 124.96166 4490 ft 195 kts 137°
2026-04-18 06:36 9.98766 124.97095 4487 ft 196 kts 137°
2026-04-18 06:37 9.97754 124.98029 4484 ft 197 kts 137°
2026-04-18 06:37 9.96751 124.98955 4491 ft 198 kts 137°
2026-04-18 06:37 9.95732 124.99897 4491 ft 197 kts 137°
2026-04-18 06:37 9.94726 125.00828 4488 ft 194 kts 137°
2026-04-18 06:38 9.93729 125.01750 4491 ft 193 kts 137°
2026-04-18 06:38 9.93070 125.02357 4487 ft 193 kts 137°
2026-04-18 06:38 9.92089 125.03284 4486 ft 191 kts 131°
2026-04-18 06:38 9.91284 125.04839 4483 ft 189 kts 100°
2026-04-18 06:39 9.91134 125.06160 4488 ft 188 kts 93°
2026-04-18 06:39 9.91029 125.07486 4492 ft 189 kts 94°
2026-04-18 06:39 9.90923 125.08823 4485 ft 190 kts 93°
2026-04-18 06:39 9.90818 125.10153 4487 ft 189 kts 93°
2026-04-18 06:40 9.90710 125.11488 4483 ft 191 kts 93°
2026-04-18 06:40 9.90601 125.12833 4488 ft 192 kts 92°
2026-04-18 06:40 9.90527 125.13731 4492 ft 193 kts 93°
2026-04-18 06:40 9.90383 125.15559 4489 ft 194 kts 91°
2026-04-18 06:41 9.90384 125.16924 4490 ft 194 kts 87°
2026-04-18 06:41 9.90416 125.18290 4490 ft 194 kts 87°
2026-04-18 06:41 9.90449 125.19657 4488 ft 194 kts 87°
2026-04-18 06:41 9.90480 125.21002 4493 ft 193 kts 87°
2026-04-18 06:42 9.90508 125.22367 4491 ft 193 kts 87°
2026-04-18 06:42 9.90535 125.23729 4491 ft 193 kts 87°
2026-04-18 06:42 9.90564 125.25095 4496 ft 194 kts 87°
2026-04-18 06:42 9.90583 125.26000 4483 ft 194 kts 87°
2026-04-18 06:43 9.90610 125.27368 4493 ft 194 kts 87°
2026-04-18 06:43 9.90647 125.29204 4495 ft 195 kts 87°
2026-04-18 06:43 9.90664 125.30114 4492 ft 195 kts 86°
2026-04-18 06:43 9.90688 125.31485 4495 ft 194 kts 87°
2026-04-18 06:44 9.90713 125.32855 4494 ft 194 kts 87°
2026-04-18 06:44 9.90737 125.34224 4492 ft 194 kts 87°
2026-04-18 06:44 9.90770 125.36038 4493 ft 194 kts 87°
2026-04-18 06:44 9.90787 125.36963 4491 ft 194 kts 87°
2026-04-18 06:45 9.90809 125.38313 4491 ft 194 kts 87°
2026-04-18 06:45 9.90834 125.39642 4492 ft 194 kts 86°
2026-04-18 06:45 9.90858 125.41016 4492 ft 195 kts 87°
2026-04-18 06:45 9.90880 125.42390 4489 ft 195 kts 86°
2026-04-18 06:46 9.90902 125.43764 4492 ft 195 kts 87°
2026-04-18 06:46 9.90923 125.45136 4494 ft 194 kts 86°
2026-04-18 06:46 9.90942 125.46510 4491 ft 195 kts 87°
2026-04-18 06:46 9.90960 125.47882 4494 ft 195 kts 87°
2026-04-18 06:47 9.90975 125.49257 4493 ft 195 kts 87°
2026-04-18 06:47 9.90993 125.50634 4496 ft 195 kts 87°
2026-04-18 06:47 9.91007 125.52012 4493 ft 195 kts 87°
2026-04-18 06:47 9.91026 125.53370 4494 ft 195 kts 87°
2026-04-18 06:48 9.91042 125.54746 4494 ft 195 kts 87°
2026-04-18 06:48 9.91058 125.56123 4489 ft 195 kts 87°
2026-04-18 06:48 9.91039 125.57503 4491 ft 196 kts 92°
2026-04-18 06:48 9.90905 125.58878 4495 ft 196 kts 94°
2026-04-18 06:49 9.90771 125.60164 4497 ft 197 kts 94°
2026-04-18 06:49 9.90625 125.61545 4491 ft 197 kts 94°
2026-04-18 06:49 9.90479 125.62930 4496 ft 198 kts 94°
2026-04-18 06:49 9.90337 125.64321 4494 ft 200 kts 94°
2026-04-18 06:50 9.90187 125.65720 4497 ft 200 kts 95°
2026-04-18 06:50 9.90034 125.67121 4504 ft 202 kts 94°
2026-04-18 06:50 9.89882 125.68557 4500 ft 207 kts 94°
2026-04-18 06:50 9.89727 125.70004 4502 ft 205 kts 94°
2026-04-18 06:51 9.89571 125.71412 4494 ft 199 kts 94°
2026-04-18 06:51 9.89423 125.72798 4492 ft 197 kts 94°
2026-04-18 06:51 9.89281 125.74173 4494 ft 195 kts 94°
2026-04-18 06:51 9.89113 125.75530 4495 ft 194 kts 97°
2026-04-18 06:52 9.88863 125.76874 4497 ft 194 kts 99°
2026-04-18 06:52 9.88608 125.78215 4496 ft 193 kts 99°
2026-04-18 06:52 9.88350 125.79553 4492 ft 193 kts 99°
2026-04-18 06:52 9.88093 125.80890 4497 ft 193 kts 99°
2026-04-18 06:53 9.87834 125.82230 4500 ft 193 kts 99°
2026-04-18 06:53 9.87574 125.83567 4505 ft 193 kts 99°
2026-04-18 06:53 9.87318 125.84905 4499 ft 193 kts 99°
2026-04-18 06:53 9.87057 125.86238 4499 ft 188 kts 99°
2026-04-18 06:54 9.86809 125.87467 4490 ft 169 kts 98°
2026-04-18 06:54 9.86572 125.88630 4212 ft 174 kts 99°
2026-04-18 06:54 9.86393 125.89813 3832 ft 165 kts 95°
2026-04-18 06:54 9.86238 125.90946 3463 ft 160 kts 96°
2026-04-18 06:55 9.86093 125.92060 3101 ft 158 kts 95°
2026-04-18 06:55 9.85951 125.93159 2725 ft 156 kts 94°
2026-04-18 06:55 9.85799 125.94263 2366 ft 160 kts 95°
2026-04-18 06:55 9.85635 125.95386 2003 ft 160 kts 94°
2026-04-18 06:56 9.85462 125.96498 1643 ft 160 kts 95°
2026-04-18 06:56 9.85301 125.97583 1518 ft 152 kts 94°
2026-04-18 06:56 9.85145 125.98685 1491 ft 161 kts 96°
2026-04-18 06:56 9.84998 125.99725 1351 ft 134 kts 95°
2026-04-18 06:57 9.84553 126.00402 1355 ft 123 kts 147°
2026-04-18 06:57 9.82912 126.00176 1195 ft 110 kts 205°
2026-04-18 06:57 9.82266 125.99870 1212 ft 97 kts 207°
2026-04-18 06:58 9.81671 125.99985 1175 ft 90 kts 120°
2026-04-18 06:58 9.81819 126.00482 1054 ft 86 kts 17°
2026-04-18 06:58 9.82358 126.00723 842 ft 76 kts 22°
2026-04-18 06:58 9.82880 126.00911 688 ft 84 kts 16°
2026-04-18 06:59 9.83384 126.01084 502 ft 74 kts 14°
2026-04-18 06:59 9.83898 126.01182 377 ft 77 kts 11°
2026-04-18 06:59 9.84427 126.01277 261 ft 77 kts 18°
2026-04-18 06:59 9.84921 126.01362 106 ft 65 kts
2026-04-18 07:00 9.85336 126.01432 32 ft 54 kts 13°
2026-04-18 07:00 9.85616 126.01478 26 ft 7 kts
2026-04-18 07:00 9.85625 126.01483 29 ft 7 kts 37°
2026-04-18 07:00 9.85650 126.01518 30 ft 4 kts 71°
2026-04-18 07:01 9.85650 126.01543 30 ft 4 kts 101°
2026-04-18 07:01 9.85646 126.01564 30 ft 0 kts 99°